Location: St. Louis
(38.6270°N, 90.1994°W)
Time: 09:29:41
(UTC-06:00)

Vanguard 2 Rocket - Pass Details

Date: 30 November 2021
Orbit: 553 x 3325 km, 32.9° (Epoch: 23 January)

Event Time Altitude Azimuth Distance (km) Brightness Sun altitude
Rises 19:40:33 0° 250° (WSW) 3,763 11.0 -34.7°
Reaches altitude 10° 19:42:44 10° 247° (WSW) 3,058 10.3 -35.1°
Maximum altitude 19:50:25 62° 168° (SSE) 1,855 8.2 -36.6°
Enters shadow 19:50:25 62° 168° (SSE) 1,855 8.2 -36.6°
Drops below altitude 10° 20:04:16 10° 93° (E) 5,290 - -39.3°
Sets 20:09:20 0° 91° (E) 6,675 - -40.3°
